| time (UTC) | temp F | wind direction | speed MPH | gust MPH | rain 1hr in | rain 24hr in | rain mn in | humidity % | barometer mb |
| 20260506132008 | 83 | 156 | 0.0 | 0.0 | 0.00 | 0.00 | 0.00 | 62 | 1019.8 |
| 20260506131511 | 84 | 189 | 0.0 | 0.0 | 0.00 | 0.00 | 0.00 | 62 | 1019.6 |
| 20260506131005 | 84 | 121 | 0.0 | 0.0 | 0.00 | 0.00 | 0.00 | 62 | 1019.6 |
| 20260506130503 | 83 | 183 | 0.0 | 0.0 | 0.00 | 0.00 | 0.00 | 62 | 1019.6 |
| 20260506130140 | 83 | 121 | 0.0 | 0.0 | 0.00 | 0.00 | 0.00 | 63 | 1019.5 |
| 20260506125700 | 83 | 129 | 0.0 | 0.0 | 0.00 | 0.00 | 0.00 | 64 | 1019.4 |
| 20260506125057 | 82 | 107 | 0.0 | 0.0 | 0.00 | 0.00 | 0.00 | 64 | 1019.3 |
| 20260506124557 | 82 | 107 | 0.0 | 0.0 | 0.00 | 0.00 | 0.00 | 64 | 1019.3 |
| 20260506124054 | 81 | 132 | 0.0 | 0.0 | 0.00 | 0.00 | 0.00 | 65 | 1019.3 |
| 20260506123556 | 81 | 127 | 0.0 | 0.0 | 0.00 | 0.00 | 0.00 | 65 | 1019.2 |
| 20260506123053 | 81 | 142 | 0.0 | 0.0 | 0.00 | 0.00 | 0.00 | 65 | 1019.2 |
| 20260506122551 | 80 | 116 | 0.0 | 0.0 | 0.00 | 0.00 | 0.00 | 66 | 1019.3 |
| 20260506122051 | 80 | 131 | 0.0 | 0.0 | 0.00 | 0.00 | 0.00 | 66 | 1019.3 |
| 20260506121549 | 80 | 140 | 0.0 | 0.0 | 0.00 | 0.00 | 0.00 | 66 | 1019.3 |
| 20260506121049 | 80 | 143 | 0.0 | 0.0 | 0.00 | 0.00 | 0.00 | 66 | 1019.2 |
| 20260506120547 | 80 | 116 | 0.0 | 0.0 | 0.00 | 0.00 | 0.00 | 66 | 1019.3 |
| 20260506120046 | 80 | 174 | 0.0 | 0.0 | 0.00 | 0.00 | 0.00 | 66 | 1019.1 |
| 20260506115545 | 79 | 84 | 0.0 | 0.0 | 0.00 | 0.00 | 0.00 | 68 | 1019.1 |
| 20260506115044 | 79 | 114 | 0.0 | 0.0 | 0.00 | 0.00 | 0.00 | 68 | 1019.1 |
| 20260506114546 | 79 | 136 | 0.0 | 0.0 | 0.00 | 0.00 | 0.00 | 67 | 1019.1 |
| 20260506114043 | 80 | 108 | 0.0 | 0.0 | 0.00 | 0.00 | 0.00 | 67 | 1019.1 |
| 20260506113541 | 80 | 93 | 0.0 | 0.0 | 0.00 | 0.00 | 0.00 | 67 | 1019.1 |
| 20260506113040 | 79 | 124 | 0.0 | 0.0 | 0.00 | 0.00 | 0.00 | 68 | 1019.0 |
| 20260506112539 | 78 | 105 | 0.0 | 0.0 | 0.00 | 0.00 | 0.00 | 69 | 1018.9 |
| 20260506112035 | 78 | 120 | 0.0 | 0.0 | 0.00 | 0.00 | 0.00 | 71 | 1018.9 |
| 20260506111535 | 77 | 105 | 0.0 | 0.0 | 0.00 | 0.00 | 0.00 | 71 | 1018.8 |
| 20260506111033 | 77 | 131 | 0.0 | 0.0 | 0.00 | 0.00 | 0.00 | 71 | 1018.8 |
| 20260506110531 | 77 | 156 | 0.0 | 0.0 | 0.00 | 0.00 | 0.00 | 71 | 1018.8 |
| 20260506110035 | 76 | 136 | 0.0 | 0.0 | 0.00 | 0.00 | 0.00 | 72 | 1018.7 |
| 20260506105528 | 76 | 130 | 0.0 | 0.0 | 0.00 | 0.00 | 0.00 | 72 | 1018.7 |
| 20260506105028 | 76 | 122 | 0.0 | 0.0 | 0.00 | 0.00 | 0.00 | 74 | 1018.7 |
| 20260506104527 | 76 | 146 | 0.0 | 0.0 | 0.00 | 0.00 | 0.00 | 76 | 1018.6 |
| 20260506104023 | 75 | 129 | 0.0 | 0.0 | 0.00 | 0.00 | 0.00 | 77 | 1018.6 |
| 20260506103523 | 0 | 0.0 | 0.0 | 0.00 | 0.00 | 0.00 | 1018.5 | ||
| 20260506103020 | 0 | 0.0 | 0.0 | 0.00 | 0.00 | 0.00 | 1018.5 | ||
| 20260506102519 | 0 | 0.0 | 0.0 | 0.00 | 0.00 | 0.00 | 1018.4 | ||
| 20260506102017 | 0 | 0.0 | 0.0 | 0.00 | 0.00 | 0.00 | 1018.4 | ||
| 20260506101532 | 0 | 0.0 | 0.0 | 0.00 | 0.00 | 0.00 | 1018.4 | ||
| 20260506101015 | 0 | 0.0 | 0.0 | 0.00 | 0.00 | 0.00 | 1018.3 | ||
| 20260506100515 | 0 | 0.0 | 0.0 | 0.00 | 0.00 | 0.00 | 1018.3 | ||
| 20260506100010 | 0 | 0.0 | 0.0 | 0.00 | 0.00 | 0.00 | 1018.4 | ||
| 20260506095512 | 0 | 0.0 | 0.0 | 0.00 | 0.00 | 0.00 | 1018.4 | ||
| 20260506095007 | 0 | 0.0 | 0.0 | 0.00 | 0.00 | 0.00 | 1018.3 | ||
| 20260506094513 | 0 | 0.0 | 0.0 | 0.00 | 0.00 | 0.00 | 1018.3 | ||
| 20260506094005 | 0 | 0.0 | 0.0 | 0.00 | 0.00 | 0.00 | 1018.2 | ||
| 20260506093502 | 0 | 0.0 | 0.0 | 0.00 | 0.00 | 0.00 | 1018.2 | ||
| 20260506093001 | 0 | 0.0 | 0.0 | 0.00 | 0.00 | 0.00 | 1018.3 | ||
| 20260506092600 | 0 | 0.0 | 0.0 | 0.00 | 0.00 | 0.00 | 1018.3 | ||
| 20260506092058 | 0 | 0.0 | 0.0 | 0.00 | 0.00 | 0.00 | 1018.2 | ||
| 20260506091556 | 0 | 0.0 | 0.0 | 0.00 | 0.00 | 0.00 | 1018.1 | ||
| 20260506091055 | 0 | 0.0 | 0.0 | 0.00 | 0.00 | 0.00 | 1018.1 | ||
| 20260506090557 | 0 | 0.0 | 0.0 | 0.00 | 0.00 | 0.00 | 1018.3 | ||
| 20260506090051 | 0 | 0.0 | 0.0 | 0.00 | 0.00 | 0.00 | 1018.2 | ||
| 20260506085549 | 0 | 0.0 | 0.0 | 0.00 | 0.00 | 0.00 | 1018.1 | ||
| 20260506085046 | 0 | 0.0 | 0.0 | 0.00 | 0.00 | 0.00 | 1018.0 | ||
| 20260506084549 | 0 | 0.0 | 0.0 | 0.00 | 0.00 | 0.00 | 1018.1 | ||
| 20260506084043 | 0 | 161 | 0.0 | 0.0 | 0.00 | 0.00 | 0.00 | 1017.9 | |
| 20260506083542 | 0 | 161 | 0.0 | 0.0 | 0.00 | 0.00 | 0.00 | 1018.0 | |
| 20260506083041 | 0 | 162 | 0.0 | 0.0 | 0.00 | 0.00 | 0.00 | 79 | 1017.9 |
| 20260506082542 | 74 | 165 | 0.0 | 0.0 | 0.00 | 0.00 | 0.00 | 79 | 1017.9 |
| 20260506082040 | 74 | 165 | 0.0 | 0.0 | 0.00 | 0.00 | 0.00 | 79 | 1017.9 |
| 20260506081538 | 74 | 165 | 0.0 | 0.0 | 0.00 | 0.00 | 0.00 | 78 | 1017.9 |
| 20260506081037 | 74 | 165 | 0.0 | 0.0 | 0.00 | 0.00 | 0.00 | 78 | 1017.8 |
| 20260506080536 | 74 | 165 | 0.0 | 0.0 | 0.00 | 0.00 | 0.00 | 78 | 1017.8 |
| 20260506073030 | 74 | 176 | 0.0 | 0.0 | 0.00 | 0.00 | 0.00 | 76 | 1017.9 |
| 20260506072529 | 74 | 176 | 0.0 | 0.0 | 0.00 | 0.00 | 0.00 | 76 | 1017.9 |
| 20260506072029 | 74 | 176 | 0.0 | 0.0 | 0.00 | 0.00 | 0.00 | 76 | 1017.8 |
| 20260506071527 | 74 | 176 | 0.0 | 0.0 | 0.00 | 0.00 | 0.00 | 75 | 1017.9 |
| 20260506071027 | 74 | 176 | 0.0 | 0.0 | 0.00 | 0.00 | 0.00 | 75 | 1017.8 |
| 20260506070525 | 74 | 176 | 0.0 | 0.0 | 0.00 | 0.00 | 0.00 | 75 | 1017.9 |
| 20260506062015 | 75 | 176 | 0.0 | 0.0 | 0.00 | 0.00 | 0.00 | 72 | 1017.9 |
| 20260506061516 | 75 | 186 | 0.0 | 0.0 | 0.00 | 0.00 | 0.00 | 72 | 1017.9 |
| 20260506061019 | 75 | 181 | 0.0 | 0.0 | 0.00 | 0.00 | 0.00 | 71 | 1018.0 |
| 20260506060514 | 75 | 195 | 0.0 | 0.0 | 0.00 | 0.00 | 0.00 | 71 | 1018.0 |
| 20260506051002 | 76 | 219 | 0.0 | 0.0 | 0.00 | 0.00 | 0.00 | 70 | 1018.5 |
| 20260506050504 | 76 | 219 | 0.0 | 0.0 | 0.00 | 0.00 | 0.00 | 70 | 1018.5 |
| 20260506045059 | 75 | 221 | 0.0 | 0.0 | 0.00 | 0.00 | 0.00 | 69 | 1018.6 |
| 20260506044603 | 76 | 202 | 0.0 | 0.0 | 0.00 | 0.00 | 0.00 | 69 | 1018.7 |
| 20260506044058 | 76 | 193 | 0.0 | 0.0 | 0.00 | 0.00 | 0.00 | 70 | 1018.6 |
| 20260506043558 | 76 | 193 | 0.0 | 0.0 | 0.00 | 0.00 | 0.00 | 69 | 1018.6 |
| 20260506043058 | 76 | 200 | 0.0 | 0.0 | 0.00 | 0.00 | 0.00 | 69 | 1018.6 |
| 20260506042557 | 76 | 179 | 0.0 | 0.0 | 0.00 | 0.00 | 0.00 | 69 | 1018.6 |
| 20260506042057 | 76 | 132 | 0.0 | 0.0 | 0.00 | 0.00 | 0.00 | 69 | 1018.6 |
| 20260506041605 | 76 | 181 | 0.0 | 0.0 | 0.00 | 0.00 | 0.00 | 69 | 1018.6 |
| 20260506041155 | 76 | 146 | 0.0 | 0.0 | 0.00 | 0.00 | 0.00 | 69 | 1018.6 |
| 20260506040554 | 76 | 143 | 0.0 | 0.0 | 0.00 | 0.00 | 0.00 | 69 | 1018.6 |
| 20260506040053 | 76 | 135 | 0.0 | 0.0 | 0.00 | 0.00 | 0.00 | 69 | 1018.7 |
| 20260506035552 | 76 | 160 | 0.0 | 0.0 | 0.00 | 0.00 | 0.00 | 69 | 1018.8 |
| 20260506035052 | 76 | 122 | 0.0 | 0.0 | 0.00 | 0.00 | 0.00 | 69 | 1018.8 |
| 20260506034555 | 76 | 129 | 0.0 | 0.0 | 0.00 | 0.00 | 0.00 | 69 | 1018.8 |
| 20260506034051 | 76 | 132 | 0.0 | 0.0 | 0.00 | 0.00 | 0.00 | 69 | 1019.0 |
| 20260506033553 | 76 | 115 | 0.0 | 0.0 | 0.00 | 0.00 | 0.00 | 69 | 1019.0 |
| 20260506033100 | 76 | 133 | 0.0 | 0.0 | 0.00 | 0.00 | 0.00 | 69 | 1019.1 |
| 20260506032551 | 76 | 148 | 0.0 | 0.0 | 0.00 | 0.00 | 0.00 | 69 | 1019.1 |
| 20260506032053 | 77 | 129 | 0.0 | 0.0 | 0.00 | 0.00 | 0.00 | 69 | 1019.1 |
| 20260506031556 | 77 | 163 | 0.0 | 0.0 | 0.00 | 0.00 | 0.00 | 69 | 1019.1 |
| 20260506031052 | 77 | 124 | 0.0 | 0.0 | 0.00 | 0.00 | 0.00 | 68 | 1019.1 |
| 20260506030552 | 77 | 156 | 0.0 | 0.0 | 0.00 | 0.00 | 0.00 | 68 | 1019.2 |
| 20260506030048 | 77 | 163 | 0.0 | 0.0 | 0.00 | 0.00 | 0.00 | 68 | 1019.1 |
| 20260506025549 | 77 | 150 | 0.0 | 0.0 | 0.00 | 0.00 | 0.00 | 68 | 1019.1 |
| 20260506025048 | 77 | 139 | 0.0 | 0.0 | 0.00 | 0.00 | 0.00 | 68 | 1019.1 |
| 20260506024546 | 77 | 122 | 0.0 | 0.0 | 0.00 | 0.00 | 0.00 | 68 | 1019.2 |
| 20260506024048 | 77 | 141 | 0.0 | 0.0 | 0.00 | 0.00 | 0.00 | 67 | 1019.1 |
| 20260506023547 | 77 | 142 | 0.0 | 0.0 | 0.00 | 0.00 | 0.00 | 67 | 1019.2 |
| 20260506023046 | 77 | 148 | 0.0 | 0.0 | 0.00 | 0.00 | 0.00 | 67 | 1019.0 |
| 20260506022545 | 77 | 112 | 0.0 | 0.0 | 0.00 | 0.00 | 0.00 | 67 | 1019.0 |
| 20260506022045 | 78 | 150 | 0.0 | 0.0 | 0.00 | 0.00 | 0.00 | 67 | 1019.1 |
| 20260506021545 | 78 | 129 | 0.0 | 0.0 | 0.00 | 0.00 | 0.00 | 67 | 1019.1 |
| 20260506021045 | 78 | 108 | 0.0 | 0.0 | 0.00 | 0.00 | 0.00 | 67 | 1019.1 |
| 20260506020644 | 78 | 143 | 0.0 | 0.0 | 0.00 | 0.00 | 0.00 | 67 | 1019.0 |
| 20260506020043 | 78 | 128 | 0.0 | 0.0 | 0.00 | 0.00 | 0.00 | 67 | 1019.0 |
| 20260506015543 | 78 | 131 | 0.0 | 0.0 | 0.00 | 0.00 | 0.00 | 67 | 1018.9 |
| 20260506015043 | 78 | 129 | 0.0 | 0.0 | 0.00 | 0.00 | 0.00 | 67 | 1018.9 |
| 20260506014550 | 78 | 150 | 0.0 | 0.0 | 0.00 | 0.00 | 0.00 | 66 | 1018.9 |
| 20260506014042 | 78 | 131 | 0.0 | 0.0 | 0.00 | 0.00 | 0.00 | 66 | 1018.9 |
| 20260506013542 | 78 | 155 | 0.0 | 0.0 | 0.00 | 0.00 | 0.00 | 66 | 1018.8 |
| 20260506013042 | 78 | 106 | 0.0 | 0.0 | 0.00 | 0.00 | 0.00 | 67 | 1018.8 |
| 20260506012542 | 78 | 138 | 0.0 | 0.0 | 0.00 | 0.00 | 0.00 | 67 | 1018.9 |
| 20260506012042 | 78 | 163 | 0.0 | 0.0 | 0.00 | 0.00 | 0.00 | 67 | 1018.8 |
| 20260506011543 | 78 | 133 | 0.0 | 0.0 | 0.00 | 0.00 | 0.00 | 66 | 1018.8 |
| 20260506011041 | 78 | 123 | 0.0 | 0.0 | 0.00 | 0.00 | 0.00 | 66 | 1018.8 |
| 20260506010543 | 78 | 150 | 0.0 | 0.0 | 0.00 | 0.00 | 0.00 | 66 | 1018.7 |
| 20260506010040 | 78 | 146 | 0.0 | 0.0 | 0.00 | 0.00 | 0.00 | 66 | 1018.7 |
| 20260506005542 | 78 | 122 | 0.0 | 0.0 | 0.00 | 0.00 | 0.00 | 66 | 1018.7 |
| 20260506005039 | 78 | 122 | 0.0 | 0.0 | 0.00 | 0.00 | 0.00 | 66 | 1018.7 |
| 20260506004543 | 78 | 124 | 0.0 | 0.0 | 0.00 | 0.00 | 0.00 | 66 | 1018.6 |
| 20260506004039 | 78 | 127 | 0.0 | 0.0 | 0.00 | 0.00 | 0.00 | 66 | 1018.5 |
| 20260506003539 | 78 | 129 | 0.0 | 0.0 | 0.00 | 0.00 | 0.00 | 66 | 1018.4 |
| 20260506003038 | 78 | 131 | 0.0 | 0.0 | 0.00 | 0.00 | 0.00 | 66 | 1018.4 |
| 20260506002540 | 78 | 134 | 0.0 | 0.0 | 0.00 | 0.00 | 0.00 | 66 | 1018.5 |
| 20260506002037 | 78 | 170 | 0.0 | 0.0 | 0.00 | 0.00 | 0.00 | 66 | 1018.4 |
| 20260506001551 | 79 | 140 | 0.0 | 0.0 | 0.00 | 0.00 | 0.00 | 66 | 1018.4 |
| 20260506001036 | 79 | 125 | 0.0 | 0.0 | 0.00 | 0.00 | 0.00 | 66 | 1018.5 |
| 20260506000538 | 79 | 121 | 0.0 | 0.0 | 0.00 | 0.00 | 0.00 | 66 | 1018.5 |
| 20260506000043 | 79 | 153 | 0.0 | 0.0 | 0.00 | 0.00 | 0.00 | 66 | 1018.4 |
| 20260505235537 | 79 | 124 | 0.0 | 0.0 | 0.00 | 0.00 | 0.00 | 66 | 1018.4 |
| 20260505235036 | 79 | 145 | 0.0 | 0.0 | 0.00 | 0.00 | 0.00 | 66 | 1018.4 |
| 20260505234545 | 79 | 131 | 0.0 | 0.0 | 0.00 | 0.00 | 0.00 | 66 | 1018.4 |
| 20260505234037 | 80 | 131 | 0.0 | 0.0 | 0.00 | 0.00 | 0.00 | 66 | 1018.3 |
| 20260505233534 | 80 | 123 | 0.0 | 0.0 | 0.00 | 0.00 | 0.00 | 65 | 1018.2 |
| 20260505233035 | 80 | 117 | 0.0 | 0.0 | 0.00 | 0.00 | 0.00 | 65 | 1018.3 |
| 20260505232534 | 80 | 126 | 0.0 | 0.0 | 0.00 | 0.00 | 0.00 | 65 | 1018.2 |
| 20260505232035 | 80 | 115 | 0.0 | 0.0 | 0.00 | 0.00 | 0.00 | 65 | 1018.2 |
| 20260505231539 | 80 | 122 | 0.0 | 0.0 | 0.00 | 0.00 | 0.00 | 65 | 1018.2 |
| 20260505231035 | 80 | 108 | 0.0 | 0.0 | 0.00 | 0.00 | 0.00 | 65 | 1018.2 |
| 20260505230533 | 80 | 109 | 0.0 | 0.0 | 0.00 | 0.00 | 0.00 | 65 | 1018.1 |
| 20260505230037 | 80 | 131 | 0.0 | 0.0 | 0.00 | 0.00 | 0.00 | 65 | 1018.1 |
| 20260505225537 | 80 | 105 | 0.0 | 0.0 | 0.00 | 0.00 | 0.00 | 65 | 1018.1 |
| 20260505225032 | 80 | 114 | 0.0 | 0.0 | 0.00 | 0.00 | 0.00 | 64 | 1018.1 |
| 20260505224538 | 80 | 103 | 0.0 | 0.0 | 0.00 | 0.00 | 0.00 | 64 | 1018.0 |
| 20260505224033 | 81 | 129 | 0.0 | 0.0 | 0.00 | 0.00 | 0.00 | 64 | 1017.8 |
| 20260505223533 | 81 | 127 | 0.0 | 0.0 | 0.00 | 0.00 | 0.00 | 64 | 1017.9 |
| 20260505223040 | 81 | 135 | 0.0 | 0.0 | 0.00 | 0.00 | 0.00 | 63 | 1017.8 |
| 20260505222531 | 81 | 131 | 0.0 | 0.0 | 0.00 | 0.00 | 0.00 | 63 | 1017.7 |
| 20260505222031 | 82 | 131 | 0.0 | 0.0 | 0.00 | 0.00 | 0.00 | 63 | 1017.6 |
| 20260505221530 | 82 | 131 | 0.0 | 0.0 | 0.00 | 0.00 | 0.00 | 62 | 1017.6 |
| 20260505221029 | 82 | 142 | 0.0 | 0.0 | 0.00 | 0.00 | 0.00 | 62 | 1017.4 |
| 20260505220530 | 82 | 126 | 0.0 | 0.0 | 0.00 | 0.00 | 0.00 | 62 | 1017.4 |
| 20260505220037 | 82 | 104 | 0.0 | 0.0 | 0.00 | 0.00 | 0.00 | 62 | 1017.3 |
| 20260505215528 | 83 | 139 | 0.0 | 0.0 | 0.00 | 0.00 | 0.00 | 61 | 1017.3 |
| 20260505215029 | 83 | 154 | 0.0 | 0.0 | 0.00 | 0.00 | 0.00 | 60 | 1017.2 |
| 20260505214548 | 83 | 143 | 0.0 | 0.0 | 0.00 | 0.00 | 0.00 | 59 | 1017.2 |
| 20260505214031 | 84 | 179 | 0.0 | 0.0 | 0.00 | 0.00 | 0.00 | 60 | 1017.2 |
| 20260505213530 | 84 | 179 | 0.0 | 0.0 | 0.00 | 0.00 | 0.00 | 60 | 1017.2 |
| 20260505213045 | 84 | 171 | 0.0 | 0.0 | 0.00 | 0.00 | 0.00 | 59 | 1017.1 |
| 20260505212526 | 83 | 134 | 0.0 | 0.0 | 0.00 | 0.00 | 0.00 | 59 | 1017.1 |
| 20260505212026 | 84 | 143 | 0.0 | 0.0 | 0.00 | 0.00 | 0.00 | 60 | 1017.1 |
| 20260505211525 | 84 | 142 | 0.0 | 0.0 | 0.00 | 0.00 | 0.00 | 60 | 1017.2 |
| 20260505211026 | 83 | 124 | 0.0 | 0.0 | 0.00 | 0.00 | 0.00 | 61 | 1017.2 |
| 20260505210523 | 83 | 197 | 0.0 | 0.0 | 0.00 | 0.00 | 0.00 | 60 | 1017.2 |
| 20260505210028 | 83 | 170 | 0.0 | 0.0 | 0.00 | 0.00 | 0.00 | 61 | 1017.1 |
| 20260505205524 | 83 | 129 | 0.0 | 0.0 | 0.00 | 0.17 | 0.00 | 61 | 1017.1 |
| 20260505205026 | 84 | 194 | 0.0 | 0.0 | 0.00 | 0.17 | 0.00 | 60 | 1017.2 |
| 20260505204529 | 84 | 206 | 0.0 | 0.0 | 0.00 | 0.17 | 0.00 | 59 | 1017.1 |
| 20260505204021 | 84 | 126 | 0.0 | 0.0 | 0.00 | 0.17 | 0.00 | 59 | 1017.2 |
| 20260505203521 | 85 | 141 | 0.0 | 0.0 | 0.00 | 0.17 | 0.00 | 58 | 1017.0 |
| 20260505203023 | 85 | 108 | 0.0 | 0.0 | 0.00 | 0.17 | 0.00 | 59 | 1017.0 |
| 20260505202521 | 85 | 189 | 0.0 | 0.0 | 0.00 | 0.17 | 0.00 | 58 | 1017.0 |
| 20260505202021 | 85 | 160 | 0.0 | 0.0 | 0.00 | 0.17 | 0.00 | 57 | 1017.2 |
| 20260505201538 | 86 | 142 | 0.0 | 0.0 | 0.00 | 0.17 | 0.00 | 56 | 1017.1 |
| 20260505201020 | 86 | 172 | 0.0 | 0.0 | 0.00 | 0.17 | 0.00 | 56 | 1017.1 |
| 20260505200520 | 86 | 219 | 0.0 | 0.0 | 0.00 | 0.17 | 0.00 | 56 | 1017.2 |
| 20260505200027 | 85 | 204 | 0.0 | 0.0 | 0.00 | 0.17 | 0.00 | 57 | 1017.2 |
| 20260505195519 | 86 | 125 | 0.0 | 0.0 | 0.00 | 0.17 | 0.00 | 56 | 1017.2 |
| 20260505195120 | 87 | 196 | 0.0 | 0.0 | 0.00 | 0.17 | 0.00 | 56 | 1017.3 |
| 20260505194519 | 86 | 187 | 0.0 | 0.0 | 0.00 | 0.17 | 0.00 | 56 | 1017.3 |
| 20260505194020 | 86 | 173 | 0.0 | 0.0 | 0.00 | 0.17 | 0.00 | 56 | 1017.3 |
| 20260505193519 | 86 | 222 | 0.0 | 0.0 | 0.00 | 0.17 | 0.00 | 55 | 1017.3 |
| 20260505193037 | 86 | 195 | 0.0 | 0.0 | 0.00 | 0.17 | 0.00 | 55 | 1017.3 |
| 20260505192518 | 87 | 141 | 0.0 | 0.0 | 0.00 | 0.17 | 0.00 | 54 | 1017.4 |
| 20260505192016 | 87 | 244 | 0.0 | 0.0 | 0.00 | 0.17 | 0.00 | 56 | 1017.4 |
| 20260505191517 | 86 | 112 | 0.0 | 0.0 | 0.00 | 0.17 | 0.00 | 57 | 1017.3 |
| 20260505191018 | 86 | 115 | 0.0 | 0.0 | 0.00 | 0.17 | 0.00 | 57 | 1017.4 |
| 20260505190517 | 86 | 123 | 0.0 | 0.0 | 0.00 | 0.17 | 0.00 | 56 | 1017.4 |
| 20260505190028 | 86 | 146 | 0.0 | 0.0 | 0.00 | 0.17 | 0.00 | 55 | 1017.4 |
| 20260505185520 | 86 | 112 | 0.0 | 0.0 | 0.00 | 0.17 | 0.00 | 59 | 1017.4 |
| 20260505185013 | 86 | 188 | 0.0 | 0.0 | 0.00 | 0.17 | 0.00 | 59 | 1017.5 |
| 20260505184515 | 86 | 257 | 0.0 | 0.0 | 0.00 | 0.17 | 0.00 | 61 | 1017.6 |
| 20260505184011 | 86 | 128 | 0.0 | 0.0 | 0.00 | 0.17 | 0.00 | 64 | 1017.7 |
| 20260505183510 | 86 | 138 | 0.0 | 0.0 | 0.00 | 0.17 | 0.00 | 64 | 1017.7 |
| 20260505183016 | 86 | 121 | 0.0 | 0.0 | 0.00 | 0.17 | 0.00 | 68 | 1017.7 |
| 20260505182509 | 86 | 91 | 0.0 | 0.0 | 0.00 | 0.17 | 0.00 | 68 | 1017.8 |
| 20260505182008 | 86 | 179 | 0.0 | 0.0 | 0.00 | 0.17 | 0.00 | 68 | 1018.0 |
| 20260505181510 | 86 | 137 | 0.0 | 0.0 | 0.00 | 0.17 | 0.00 | 67 | 1017.9 |
| 20260505181011 | 86 | 168 | 0.0 | 0.0 | 0.00 | 0.17 | 0.00 | 68 | 1018.0 |
| 20260505180505 | 86 | 194 | 0.0 | 0.0 | 0.00 | 0.17 | 0.00 | 69 | 1018.1 |
| 20260505180005 | 85 | 178 | 0.0 | 0.0 | 0.00 | 0.17 | 0.00 | 69 | 1018.2 |
| 20260505175504 | 85 | 226 | 0.0 | 0.0 | 0.00 | 0.17 | 0.00 | 69 | 1018.3 |
| 20260505175004 | 85 | 145 | 0.0 | 0.0 | 0.00 | 0.17 | 0.00 | 70 | 1018.3 |
| 20260505174505 | 85 | 130 | 0.0 | 0.0 | 0.00 | 0.17 | 0.00 | 70 | 1018.3 |
| 20260505174004 | 85 | 165 | 0.0 | 0.0 | 0.00 | 0.17 | 0.00 | 70 | 1018.5 |
| 20260505173503 | 85 | 199 | 0.0 | 0.0 | 0.00 | 0.17 | 0.00 | 69 | 1018.4 |
| 20260505173005 | 86 | 162 | 0.0 | 0.0 | 0.00 | 0.17 | 0.00 | 70 | 1018.4 |
| 20260505172503 | 86 | 176 | 0.0 | 0.0 | 0.00 | 0.17 | 0.00 | 70 | 1018.5 |
| 20260505172102 | 86 | 122 | 0.0 | 0.0 | 0.00 | 0.17 | 0.00 | 70 | 1018.4 |
| 20260505171501 | 86 | 154 | 0.0 | 0.0 | 0.00 | 0.17 | 0.00 | 70 | 1018.5 |
| 20260505171001 | 86 | 167 | 0.0 | 0.0 | 0.00 | 0.17 | 0.00 | 70 | 1018.5 |
| 20260505170605 | 86 | 162 | 0.0 | 0.0 | 0.00 | 0.17 | 0.00 | 70 | 1018.7 |
| 20260505170114 | 86 | 96 | 0.0 | 0.0 | 0.00 | 0.17 | 0.00 | 69 | 1018.6 |
| 20260505165558 | 86 | 209 | 0.0 | 0.0 | 0.00 | 0.17 | 0.00 | 70 | 1018.6 |
| 20260505165100 | 86 | 150 | 0.0 | 0.0 | 0.00 | 0.17 | 0.00 | 70 | 1018.6 |
| 20260505164556 | 86 | 217 | 0.0 | 0.0 | 0.00 | 0.17 | 0.00 | 70 | 1018.7 |
| 20260505164057 | 85 | 164 | 0.0 | 0.0 | 0.00 | 0.17 | 0.00 | 70 | 1018.7 |
| 20260505163558 | 85 | 150 | 0.0 | 0.0 | 0.00 | 0.17 | 0.00 | 69 | 1018.7 |
| 20260505163059 | 85 | 141 | 0.0 | 0.0 | 0.00 | 0.17 | 0.00 | 70 | 1018.8 |
| 20260505162553 | 85 | 143 | 0.0 | 0.0 | 0.00 | 0.17 | 0.00 | 70 | 1018.8 |
| 20260505162053 | 85 | 174 | 0.0 | 0.0 | 0.00 | 0.17 | 0.00 | 70 | 1018.7 |
| 20260505161654 | 85 | 203 | 0.0 | 0.0 | 0.00 | 0.17 | 0.00 | 70 | 1018.7 |
| 20260505161051 | 84 | 146 | 0.0 | 0.0 | 0.00 | 0.17 | 0.00 | 71 | 1018.7 |
| 20260505160552 | 84 | 195 | 0.0 | 0.0 | 0.00 | 0.17 | 0.00 | 72 | 1018.8 |
| 20260505153059 | 84 | 152 | 0.0 | 0.0 | 0.00 | 0.17 | 0.00 | 71 | 1018.8 |
| 20260505152545 | 84 | 192 | 0.0 | 0.0 | 0.00 | 0.17 | 0.00 | 72 | 1018.8 |
| 20260505152046 | 84 | 131 | 0.0 | 0.0 | 0.00 | 0.17 | 0.00 | 72 | 1018.8 |
| 20260505151544 | 84 | 142 | 0.0 | 0.0 | 0.00 | 0.17 | 0.00 | 72 | 1018.8 |
| 20260505151042 | 84 | 126 | 0.0 | 0.0 | 0.00 | 0.17 | 0.00 | 72 | 1018.7 |
| 20260505150544 | 84 | 221 | 0.0 | 0.0 | 0.00 | 0.17 | 0.00 | 73 | 1018.8 |
| 20260505140531 | 83 | 156 | 0.0 | 0.0 | 0.00 | 0.17 | 0.00 | 73 | 1018.8 |